Holdrege, NE

12:06 AM CST on February 25, 2018 (GMT -0600)
Brewster

Weather History for KHDE - February, 2013

Change the Weather History Date:

Thursday, February 28, 2013

  Actual Average Record
Temperature  
Mean Temperature 26 °F -  
Max Temperature 35 °F 46 °F 80 °F (2006)
Min Temperature 16 °F 23 °F -10 °F (1962)
Degree Days  
Heating Degree Days 38    
Moisture  
Dew Point 23 °F    
Average Humidity 80    
Maximum Humidity 93    
Minimum Humidity 68    
Precipitation  
Precipitation 0.00 in - - ()
Sea Level Pressure  
Sea Level Pressure 30.19 in    
Wind  
Wind Speed 9 mph (NNW)    
Max Wind Speed 16 mph    
Max Gust Speed 21 mph    
Visibility 9 miles    
Events Fog    
Averages and records for this station are not official NWS values.
T = Trace of Precipitation, MM = Missing Value Source: NWS Daily Summary

Daily Weather History Graph

Daily Weather History Graph

Search for Another Location

Airport or City:

Trip Planner

Search our weather history database for the weather conditions in past years. The results will help you decide how hot, cold, wet, or windy it might be!

Date:

Astronomy

Feb. 28, 2013 Rise Set
Actual Time 7:12 AM CST 6:28 PM CST
Civil Twilight 6:44 AM CST 6:55 PM CST
Nautical Twilight 6:13 AM CST 7:27 PM CST
Astronomical Twilight 5:41 AM CST 7:58 PM CST
Moon 9:57 PM CST (2/28) 8:21 AM CST (2/28)
Length of Visible Light 12h 10m
Length of Day
11h 15m
Waning Gibbous, 90% of the Moon is Illuminated
Feb 28
Waning Gibbous
Mar 4
Last Quarter
Mar 11
New
Mar 19
First Quarter
Mar 27
Full

Hourly Weather History & Observations

Time (CST) Temp. Windchill Dew Point Humidity Pressure Visibility Wind Dir Wind Speed Gust Speed Precip Events Conditions
12:15 AM 26.1 °F 17.6 °F 21.0 °F 81% 30.15 in 10.0 mi NW 8.1 mph - N/A   Clear
12:35 AM 24.1 °F 13.7 °F 20.1 °F 85% 30.15 in 10.0 mi NW 10.4 mph - N/A   Scattered Clouds
12:55 AM 23.5 °F 13.0 °F 19.6 °F 85% 30.16 in 10.0 mi NW 10.4 mph - N/A   Clear
1:15 AM 25.7 °F 15.1 °F 21.4 °F 84% 30.16 in 10.0 mi NW 11.5 mph - N/A   Mostly Cloudy
1:35 AM 26.8 °F 17.7 °F 22.1 °F 83% 30.16 in 10.0 mi NNW 9.2 mph - N/A   Overcast
1:55 AM 27.5 °F 18.6 °F 22.5 °F 81% 30.16 in 10.0 mi NNW 9.2 mph - N/A   Overcast
2:15 AM 26.2 °F 17.1 °F 21.7 °F 83% 30.16 in 10.0 mi NW 9.2 mph - N/A   Overcast
2:35 AM 26.1 °F 15.0 °F 21.7 °F 84% 30.16 in 10.0 mi NW 12.7 mph - N/A   Overcast
2:55 AM 26.2 °F 15.8 °F 21.7 °F 83% 30.16 in 10.0 mi NW 11.5 mph - N/A   Overcast
3:15 AM 26.6 °F 15.7 °F 22.1 °F 83% 30.17 in 10.0 mi NW 12.7 mph - N/A   Overcast
3:55 AM 27.1 °F 17.5 °F 22.6 °F 83% 30.17 in 10.0 mi NNW 10.4 mph - N/A   Overcast
4:35 AM 27.1 °F 16.4 °F 22.8 °F 84% 30.17 in 10.0 mi NNW 12.7 mph 19.6 mph N/A   Overcast
4:55 AM 27.5 °F 16.8 °F 23.0 °F 83% 30.17 in 10.0 mi NNW 12.7 mph 18.4 mph N/A   Overcast
5:15 AM 27.5 °F 16.3 °F 23.4 °F 84% 30.18 in 10.0 mi NNW 13.8 mph 17.3 mph N/A   Overcast
5:35 AM 27.9 °F 17.3 °F 23.4 °F 83% 30.18 in 10.0 mi NNW 12.7 mph 17.3 mph N/A   Overcast
5:55 AM 28.0 °F 17.5 °F 23.4 °F 83% 30.18 in 10.0 mi NNW 12.7 mph - N/A   Overcast
6:15 AM 28.4 °F 19.7 °F 23.7 °F 83% 30.18 in 10.0 mi NNW 9.2 mph 16.1 mph N/A   Overcast
6:35 AM 28.8 °F 17.0 °F 23.7 °F 81% 30.18 in 10.0 mi NNW 16.1 mph 20.7 mph N/A   Overcast
6:55 AM 28.8 °F 18.4 °F 23.9 °F 82% 30.19 in 10.0 mi North 12.7 mph 17.3 mph N/A   Overcast
7:15 AM 28.8 °F 19.5 °F 23.9 °F 82% 30.19 in 10.0 mi NNW 10.4 mph - N/A   Overcast
7:35 AM 28.4 °F 18.5 °F 23.7 °F 83% 30.19 in 10.0 mi NNW 11.5 mph - N/A   Overcast
7:55 AM 28.2 °F 18.3 °F 23.0 °F 81% 30.19 in 10.0 mi NNW 11.5 mph - N/A   Overcast
8:15 AM 28.0 °F 18.1 °F 22.8 °F 81% 30.19 in 10.0 mi NNW 11.5 mph - N/A   Mostly Cloudy
8:35 AM 28.2 °F 18.9 °F 23.0 °F 81% 30.20 in 10.0 mi NNW 10.4 mph 17.3 mph N/A   Mostly Cloudy
8:55 AM 28.2 °F 18.9 °F 23.2 °F 81% 30.20 in 10.0 mi NW 10.4 mph - N/A   Overcast
9:15 AM 26.1 °F 15.6 °F 21.2 °F 82% 30.21 in 10.0 mi NW 11.5 mph - N/A   Overcast
9:35 AM 25.9 °F 16.0 °F 21.2 °F 82% 30.22 in 10.0 mi NW 10.4 mph - N/A   Overcast
9:55 AM 26.1 °F 16.8 °F 21.2 °F 82% 30.22 in 10.0 mi NNW 9.2 mph - N/A   Overcast
10:15 AM 27.5 °F 18.6 °F 22.1 °F 80% 30.22 in 10.0 mi NNW 9.2 mph - N/A   Overcast
10:35 AM 28.4 °F 18.5 °F 22.6 °F 79% 30.22 in 10.0 mi NNW 11.5 mph 17.3 mph N/A   Overcast
10:55 AM 29.3 °F 20.2 °F 23.0 °F 77% 30.22 in 10.0 mi NNW 10.4 mph - N/A   Overcast
11:15 AM 30.6 °F 20.7 °F 23.9 °F 76% 30.22 in 10.0 mi NNW 12.7 mph - N/A   Overcast
11:35 AM 31.5 °F 21.8 °F 24.4 °F 75% 30.22 in 10.0 mi NNW 12.7 mph - N/A   Mostly Cloudy
11:55 AM 31.8 °F 22.8 °F 24.4 °F 74% 30.22 in 10.0 mi NW 11.5 mph - N/A   Scattered Clouds
12:15 PM 32.0 °F 24.8 °F 24.6 °F 74% 30.22 in 10.0 mi NNW 8.1 mph - N/A   Clear
12:35 PM 32.4 °F 24.0 °F 25.2 °F 75% 30.21 in 10.0 mi NNW 10.4 mph - N/A   Clear
12:55 PM 33.3 °F 24.6 °F 25.0 °F 72% 30.21 in 10.0 mi NNW 11.5 mph - N/A   Clear
1:15 PM 33.3 °F 25.1 °F 24.8 °F 71% 30.20 in 10.0 mi NNW 10.4 mph - N/A   Clear
1:35 PM 33.8 °F 25.8 °F 25.0 °F 70% 30.20 in 10.0 mi North 10.4 mph - N/A   Clear
1:55 PM 34.0 °F 26.0 °F 25.0 °F 70% 30.19 in 10.0 mi North 10.4 mph - N/A   Clear
2:15 PM 34.2 °F 26.8 °F 25.2 °F 70% 30.19 in 10.0 mi North 9.2 mph - N/A   Clear
2:35 PM 34.9 °F 27.7 °F 25.5 °F 69% 30.19 in 10.0 mi NW 9.2 mph - N/A   Clear
2:55 PM 35.1 °F 28.6 °F 25.5 °F 68% 30.19 in 10.0 mi NW 8.1 mph - N/A   Scattered Clouds
3:35 PM 34.9 °F 28.3 °F 25.7 °F 69% 30.18 in 10.0 mi NW 8.1 mph - N/A   Clear
3:55 PM 34.9 °F 28.3 °F 25.9 °F 70% 30.18 in 10.0 mi NNW 8.1 mph - N/A   Clear
4:15 PM 35.1 °F 31.0 °F 26.1 °F 70% 30.18 in 10.0 mi NNW 4.6 mph - N/A   Clear
4:35 PM 35.1 °F 30.1 °F 25.9 °F 69% 30.17 in 10.0 mi NNW 5.8 mph - N/A   Clear
4:55 PM 34.9 °F 29.0 °F 25.7 °F 69% 30.17 in 10.0 mi NNW 6.9 mph - N/A   Clear
5:15 PM 34.7 °F 29.6 °F 26.1 °F 71% 30.18 in 10.0 mi NW 5.8 mph - N/A   Clear
5:35 PM 34.0 °F 29.8 °F 25.9 °F 72% 30.18 in 10.0 mi NNW 4.6 mph - N/A   Clear
5:55 PM 32.7 °F 28.3 °F 25.7 °F 75% 30.18 in 10.0 mi North 4.6 mph - N/A   Clear
6:15 PM 32.4 °F 27.9 °F 25.5 °F 76% 30.18 in 10.0 mi North 4.6 mph - N/A   Clear
6:35 PM 30.7 °F - 25.5 °F 81% 30.18 in 10.0 mi Calm Calm - N/A   Clear
7:15 PM 29.7 °F - 25.2 °F 83% 30.19 in 10.0 mi Calm Calm - N/A   Clear
7:35 PM 28.0 °F 20.0 °F 23.9 °F 84% 30.20 in 10.0 mi ENE 8.1 mph - N/A   Clear
7:55 PM 26.2 °F 18.6 °F 23.0 °F 88% 30.20 in 10.0 mi East 6.9 mph - N/A   Clear
8:15 PM 28.2 °F 22.0 °F 24.8 °F 87% 30.20 in 10.0 mi East 5.8 mph - N/A   Clear
8:35 PM 27.5 °F 20.2 °F 23.9 °F 86% 30.20 in 10.0 mi East 6.9 mph - N/A   Clear
9:15 PM 25.0 °F - 22.6 °F 91% 30.20 in 7.0 mi Calm Calm - N/A   Clear
9:35 PM 24.4 °F - 22.3 °F 91% 30.20 in 7.0 mi Calm Calm - N/A   Clear
9:55 PM 23.2 °F - 21.4 °F 93% 30.21 in 3.0 mi Calm Calm - N/A   Clear
10:15 PM 22.1 °F - 20.3 °F 93% 30.20 in 3.0 mi Calm Calm - N/A   Clear
10:35 PM 19.9 °F - 17.8 °F 91% 30.21 in 7.0 mi Calm Calm - N/A   Clear
10:55 PM 18.3 °F - 16.3 °F 92% 30.21 in 0.5 mi Calm Calm - N/A Fog Light Freezing Fog
11:35 PM 16.5 °F - 14.4 °F 91% 30.20 in 3.0 mi Calm Calm - N/A   Clear